Regional Weather Roundup
Issued by NWS

Home | Current Version | Previous Version | Graphics & Text | Print | Product List | Glossary On
Versions: 1 2 3 4 5 6 7 8 9 10 11 12 13 14 15 16 17 18 19 20 21 22 23 24 25 26 27 28 29 30 31 32 33 34 35 36 37 38 39 40 41 42 43 44 45 46 47 48 49 50
920
ASUS45 KTFX 231010
RWRMT
MONTANA REGIONAL WEATHER ROUNDUP
NATIONAL WEATHER SERVICE GREAT FALLS MT
400 AM MDT WED AUG 23 2017

NOTE: "FAIR" INDICATES FEW OR NO CLOUDS BELOW 12000 FEET WITH NO
SIGNIFICANT WEATHER AND/OR OBSTRUCTIONS TO VISIBILITY.

MTZ001>007-043-231100-
WEST OF THE DIVIDE

CITY           SKY/WX    TMP DP  RH WIND       PRES   REMARKS
KALISPELL        N/A     46  40  79 CALM      30.01S
MISSOULA       MOCLDY    56  41  57 CALM      30.06S HAZE
BUTTE          CLEAR     48  33  56 SE5       30.21F
MULLAN PASS      N/A     65  34  31 VRB3      30.19S
ANACONDA         N/A     55  30  38 S9        30.16F
DEER LODGE       N/A     48  34  57 CALM      30.16F
EUREKA           N/A     55  39  54 MISG      29.97F
HAMILTON         N/A     64  34  32 S13       30.07F
LIBBY            N/A     54  41  62 SE3       29.98F
$$

MTZ008-052>055-231100-
SOUTHWEST MONTANA

CITY           SKY/WX    TMP DP  RH WIND       PRES   REMARKS
BOZEMAN        CLEAR     49  41  74 E6        30.13S
DILLON         CLEAR     52  31  44 CALM      30.17S
W YELLOWSTONE  CLOUDY    37  30  75 CALM      30.30S
ENNIS          MOCLDY    52  32  46 N5        30.23S
$$

MTZ009-010-012-014-046-048-049-054-231100-
EAST SLOPES AND CENTRAL MONTANA

CITY           SKY/WX    TMP DP  RH WIND       PRES   REMARKS
CUT BANK         N/A     54  38  54 NW5       30.02F
GREAT FALLS    CLEAR     55  32  41 SW9       30.02S
MALMSTROM AFB  CLEAR     56  34  43 SW6       30.01F
HELENA         MOCLDY    62  41  46 CALM      30.08F
AUGUSTA          N/A     63  32  31 MISG      30.06F
BOWMANS CRNR     N/A     58  32  37 W8        30.05F
CHOTEAU          N/A     55  37  50 SW7       30.04F
FAIRFIELD        N/A     60  35  40 CALM      30.02
POWER            N/A     54  32  43 W3        30.02S
RAYNESFORD       N/A     53  36  52 CALM      30.05F
ULM              N/A     63  33  32 SE10      30.02F
$$

MTZ011-013-016-021-045-047-050-051-231100-
NORTH CENTRAL MONTANA

CITY           SKY/WX    TMP DP  RH WIND       PRES   REMARKS
HAVRE          CLEAR     58  40  51 E6        29.95F
LEWISTOWN      CLEAR     53  35  50 SE7       30.05F
N BAR RANCH      N/A     54  32  43 CALM      30.11F
CHINOOK          N/A     57  39  51 E5        29.97F
DENTON           N/A     59  35  41 S15       29.98F
GEYSER           N/A     64  34  32 SW13      30.03F
GRASS RANGE      N/A     59  33  38 SW7       30.01F
JUDITH GAP       N/A     62  33  34 SW16      30.10F
WINIFRED       MOCLDY    65  33  30 E3        30.01F
$$

MTZ017>020-022>027-061-062-231100-
NORTHEAST MONTANA

CITY           SKY/WX    TMP DP  RH WIND       PRES   REMARKS
GLASGOW        CLEAR     60  36  40 E10       30.00F
JORDAN           N/A     60  37  42 E6        30.01F
SIDNEY         CLEAR     54  41  61 SW6       30.05F
WOLF POINT     CLEAR     57  38  48 CALM      30.02F
MALTA          MOCLDY    54  41  62 E6        29.99F
PLENTYWOOD       N/A     63  39  42 S8        30.03F
POPLAR           N/A     66  41  39 SW3       30.02F
$$

MTZ028>42-056>058-231100-
SOUTHCENTRAL AND SOUTHEAST MONTANA

CITY           SKY/WX    TMP DP  RH WIND       PRES   REMARKS
BAKER          CLEAR     53  43  68 E10       30.09F
BILLINGS       CLEAR     62  38  40 W9        30.04S
LIVINGSTON     CLEAR     49  34  56 NW6       30.13S
MILES CITY     CLEAR     60  39  45 NE5       30.02F
BIG TIMBER     CLOUDY    61  36  39 W13       30.13S
HARLOWTON        N/A     54  34  46 MISG      30.10F
LAUREL           N/A     63  34  34 NW10      30.05S
$$

REGIONAL REPORTS...DAKOTAS

CITY           SKY/WX    TMP DP  RH WIND       PRES   REMARKS
WILLISTON      CLEAR     57  42  57 SW6       30.04F
MINOT          CLEAR     59  46  62 SE3       30.03F
DICKINSON      CLEAR     52  42  69 S9        30.08F
BEACH            N/A     55  41  58 SE8       30.11F
CROSBY           N/A     55  45  67 S12       30.02F
TIOGA            N/A     57  41  54 CALM      30.06F
WATFORD CITY     N/A     52  39  62 CALM      30.05F
BISMARCK       CLEAR     50  47  89 CALM      30.10F
GRAND FORKS    CLEAR     46  44  93 W3        30.09S
FARGO          CLEAR     48  45  89 W3        30.09F
BUFFALO SD       N/A     53  48  83 NE10      30.02F
RAPID CITY     CLEAR     57  48  72 CALM      30.06F
$$

REGIONAL REPORTS...WYOMING/IDAHO/WASHINGTON

CITY           SKY/WX    TMP DP  RH WIND       PRES   REMARKS
GILLETTE       CLEAR     48  38  68 SW3       30.11S
SHERIDAN       CLEAR     53  41  63 CALM      30.07F
BUFFALO WY     CLEAR     64  32  30 SW7       30.14F
YELLOWSTONE LA   N/A     38  34  85 NW3       30.39S
IDAHO FALLS    PTCLDY    60  46  59 CALM      30.17S
SALMON         CLEAR     48  38  68 CALM      30.14S
BOISE            N/A     70  41  34 SE8       29.99S
SPOKANE        MOCLDY    65  42  43 S8        29.98S
$$

REGIONAL REPORTS...ALBERTA

CITY           SKY/WX    TMP DP  RH WIND       PRES   REMARKS
EDMONTON       PTCLDY    61  54  77 S8        29.94F
CALGARY        PTCLDY    55  45  67 NE3       29.99F
LETHBRIDGE     CLEAR     54  41  62 SW10      29.95F
MEDICINE HAT   CLEAR     57  45  62 N2        29.94F
$$

REGIONAL REPORTS...SASKATCHEWAN

CITY           SKY/WX    TMP DP  RH WIND       PRES   REMARKS
SWIFT CURRENT  CLEAR     61  39  44 S12       29.98F
REGINA         CLEAR     50  41  71 SE9       29.97F
SASKATOON      PTCLDY    52  50  93 W5        30.00F
$$




USA.gov is the U.S. government's official web portal to all federal, state and local government web resources and services.